Temp
63 63 63 63 63 63 63 63 64 64 64 64 64 64 64 64 64 76 91 93 87 81 84 85 85 85 85 82 85 86 80 73 73 72 74 80 76 81 83 79 80 80 79 83 81
62 62 62 62 62 63 63 63 63 64 64 63 63 64 64 64 74 86 89 82 82 82 86 85 83 83 83 82 85 83 79 77 83 82 78 80 79 78 77 76 74 75 79 80 80
62 62 62 62 62 62 62 63 63 63 63 63 63 64 64 66 87 94 82 82 82 85 93 92 89 86 83 85 85 83 80 83 83 85 84 80 79 82 79 74 78 75 75 77 79
61 61 61 61 62 62 62 62 62 62 62 63 64 64 64 74 82 93 82 81 82 90 94 92 88 85 85 84 88 83 86 86 83 84 82 80 83 79 80 80 84 83 80 79 78
61 61 61 61 61 61 62 62 61 61 62 63 64 65 76 84 89 88 83 82 87 89 92 93 90 89 85 88 88 86 85 86 86 85 84 84 80 80 78 79 83 82 80 79 80
60 60 60 60 60 61 61 61 60 61 62 63 64 65 80 80 91 90 89 87 89 89 93 94 94 94 89 87 87 86 85 85 86 84 84 79 78 81 77 80 79 79 79 80 81
60 60 60 60 60 60 60 60 60 61 62 63 65 70 78 86 92 90 89 92 94 94 94 96 97 94 91 86 89 87 81 84 84 83 81 83 74 77 80 80 78 79 80 81 81
60 60 60 60 60 59 59 59 59 61 64 65 66 74 80 90 90 91 90 94 95 96 95 98 97 94 90 91 87 83 81 75 82 83 81 81 74 80 81 79 78 79 80 80 81
59 59 59 59 58 58 58 58 61 64 67 67 73 78 82 86 89 92 93 94 95 95 96 98 95 89 90 85 81 80 74 74 77 84 81 79 75 79 81 81 79 80 81 81 82
59 58 58 57 57 57 56 58 64 66 70 73 78 77 87 83 87 90 93 93 95 94 93 92 89 87 85 83 72 74 76 76 76 81 80 77 76 80 79 80 80 81 82 82 84
58 58 58 57 56 56 59 75 78 77 76 77 77 76 80 86 87 89 91 93 94 91 85 83 84 81 86 86 83 81 78 76 81 82 79 79 79 79 80 79 80 81 82 84 85
58 58 57 56 56 55 58 76 74 74 70 74 74 75 80 84 80 87 91 89 87 82 82 82 80 87 84 83 82 80 77 77 81 81 79 78 78 81 79 79 81 82 81 83 86
58 57 57 56 55 64 70 75 73 74 70 74 77 77 80 83 81 84 89 86 82 78 80 80 83 83 83 80 80 79 78 78 78 77 79 77 79 76 78 80 81 83 85 86 85
58 57 56 54 64 65 74 73 71 73 68 73 76 81 80 80 79 87 89 88 81 80 78 79 81 80 80 80 82 78 83 83 79 77 73 77 71 81 77 75 78 81 83 85 86
57 56 55 54 60 73 73 70 72 75 58 77 78 86 81 78 80 83 89 88 80 78 79 76 76 77 77 81 83 80 83 81 80 77 74 74 72 81 76 78 78 80 83 85 87
56 55 54 55 58 70 69 70 76 67 56 72 78 75 76 79 81 83 84 87 84 79 78 79 81 82 82 83 84 85 80 76 75 75 69 74 74 78 80 80 83 84 83 85 87
54 53 54 61 74 67 69 78 67 60 71 69 70 74 71 74 77 77 78 77 77 71 71 75 79 82 83 80 83 81 79 69 66 66 67 71 71 79 89 89 85 86 86 85 88
53 52 56 62 65 65 77 73 58 64 66 73 72 73 71 73 74 75 73 73 76 75 72 69 68 77 82 82 80 80 80 70 59 63 69 68 68 79 89 89 85 83 85 87 87
52 64 69 71 66 69 76 63 63 65 70 69 72 69 71 73 74 74 72 72 73 74 70 67 67 78 79 82 84 76 73 80 73 66 67 74 74 81 89 89 87 84 85 84 84
67 73 73 71 69 76 71 56 65 69 71 71 67 70 67 70 71 71 70 74 72 75 76 72 66 78 82 82 80 81 81 72 72 61 59 68 67 76 82 84 88 84 85 84 84
72 75 76 73 73 74 63 63 66 73 71 70 69 69 68 67 69 67 68 73 75 75 75 75 70 73 76 76 77 77 76 72 74 71 65 64 71 85 83 86 87 88 85 85 83
72 71 77 77 71 62 65 64 60 72 74 72 73 72 69 68 68 68 67 70 77 75 71 73 72 67 73 76 76 80 80 80 69 66 67 68 71 91 86 90 85 85 84 87 85
68 69 77 77 65 65 66 68 68 71 71 71 70 70 71 67 65 68 70 77 75 75 72 74 69 65 70 74 76 74 75 81 76 74 67 67 72 87 83 83 83 81 84 83 82
68 68 71 67 63 65 63 64 66 73 71 71 70 72 69 67 67 66 69 74 76 75 68 71 70 67 64 66 71 67 72 72 77 71 72 71 77 83 85 82 81 83 84 82 80
60 58 57 63 63 63 63 63 64 65 70 71 69 68 66 64 66 65 68 71 75 70 74 74 67 67 70 70 67 69 70 72 70 76 70 78 73 81 80 78 78 79 83 81 80
61 61 59 58 56 61 57 61 62 64 65 66 65 68 68 64 65 62 65 66 67 74 73 72 66 65 67 70 70 69 72 72 72 74 72 74 73 77 78 78 77 77 80 82 82
56 57 59 51 58 62 62 60 62 64 68 69 66 65 66 68 68 71 72 72 72 69 69 67 67 65 61 68 69 68 69 70 72 71 73 71 76 76 75 76 76 76 77 80 83
MSLP
1015.78 1015.43 1014.93 1014.49 1014.02 1013.51 1013.08 1012.58 1011.98 1011.48 1010.99 1010.47 1010.06 1009.53 1009.07 1008.57 1007.75 1007.43 1005.99 1004.64 1005.10 1005.90 1006.31 1006.72 1006.82 1006.76 1006.88 1006.45 1006.21 1005.84 1005.44 1005.51 1005.98 1006.37 1006.82 1007.50 1007.83 1008.50 1008.84 1009.23 1009.71 1010.26 1010.66 1011.22 1012.58
1015.79 1015.39 1014.91 1014.44 1013.93 1013.52 1012.93 1012.49 1011.93 1011.43 1010.92 1010.45 1009.89 1009.28 1008.81 1008.60 1007.57 1006.04 1004.87 1004.69 1004.88 1005.49 1005.91 1005.95 1006.00 1006.44 1006.21 1005.92 1005.69 1005.29 1004.96 1005.00 1005.26 1005.73 1006.37 1007.17 1007.67 1008.16 1008.73 1009.27 1009.78 1010.27 1010.99 1011.78 1012.70
1015.86 1015.43 1014.83 1014.33 1013.80 1013.37 1012.88 1012.28 1011.83 1011.33 1010.84 1010.35 1009.80 1009.18 1008.65 1008.32 1006.78 1004.71 1004.50 1004.77 1005.01 1005.13 1005.12 1005.39 1005.49 1005.52 1005.49 1005.34 1004.92 1004.72 1004.58 1004.84 1005.17 1005.37 1005.90 1006.79 1007.41 1007.86 1008.20 1008.71 1009.04 1009.54 1010.58 1011.65 1012.45
1015.79 1015.29 1014.72 1014.20 1013.66 1013.19 1012.60 1012.14 1011.64 1011.17 1010.70 1010.18 1009.72 1009.10 1008.58 1008.01 1006.42 1004.61 1004.52 1004.78 1005.17 1005.22 1005.12 1005.03 1005.26 1004.78 1004.49 1004.25 1004.25 1004.19 1004.46 1004.68 1005.20 1005.66 1005.96 1006.42 1006.98 1007.51 1007.92 1008.15 1008.42 1009.43 1010.02 1011.10 1011.83
1015.59 1015.13 1014.63 1014.11 1013.50 1012.91 1012.37 1011.89 1011.41 1011.00 1010.52 1009.98 1009.62 1009.08 1008.14 1007.39 1005.59 1004.80 1004.88 1005.01 1005.38 1005.29 1004.82 1004.33 1004.23 1004.05 1003.81 1003.64 1003.88 1003.95 1004.34 1004.89 1005.29 1005.74 1006.05 1006.53 1006.83 1007.21 1008.02 1008.65 1008.76 1009.77 1010.62 1011.08 1011.51
1015.48 1014.92 1014.46 1014.00 1013.42 1012.76 1012.11 1011.57 1011.10 1010.70 1010.24 1009.81 1009.43 1009.28 1008.44 1006.82 1005.04 1004.92 1005.01 1005.24 1005.05 1005.05 1004.31 1004.11 1003.64 1003.58 1003.43 1003.57 1003.57 1004.36 1004.43 1004.98 1005.40 1005.71 1006.21 1006.69 1007.10 1007.46 1008.42 1008.94 1009.32 1009.91 1010.60 1011.09 1011.37
1015.23 1014.74 1014.17 1013.58 1013.12 1012.62 1011.96 1011.29 1010.67 1010.19 1009.83 1009.41 1009.24 1009.09 1007.98 1005.73 1004.77 1004.82 1004.94 1004.59 1004.49 1004.32 1003.79 1003.73 1003.63 1003.33 1003.37 1003.58 1004.15 1004.36 1004.63 1005.10 1005.46 1005.79 1006.05 1006.62 1007.11 1007.07 1007.98 1008.70 1009.29 1009.98 1010.59 1011.02 1011.25
1015.04 1014.40 1013.87 1013.33 1012.71 1012.14 1011.63 1011.02 1010.25 1009.65 1009.11 1008.98 1009.11 1008.66 1006.62 1004.90 1004.81 1004.63 1004.48 1004.12 1004.13 1003.98 1003.85 1003.67 1003.50 1003.28 1003.41 1003.77 1004.01 1004.28 1004.67 1004.93 1005.36 1005.64 1006.13 1006.51 1006.06 1006.83 1008.03 1008.22 1008.74 1009.63 1010.22 1010.73 1010.95
1014.91 1014.31 1013.63 1012.97 1012.34 1011.68 1010.99 1010.35 1009.67 1009.23 1009.07 1008.98 1008.95 1008.05 1005.69 1004.94 1004.84 1004.33 1004.26 1003.78 1003.65 1003.70 1003.57 1003.47 1003.34 1003.56 1003.79 1003.63 1003.94 1004.48 1004.46 1004.80 1005.00 1005.31 1005.65 1006.26 1005.89 1006.84 1007.85 1008.20 1008.44 1008.89 1009.37 1009.87 1010.33
1014.64 1014.08 1013.47 1012.78 1012.06 1011.35 1010.51 1009.72 1009.33 1009.21 1009.11 1008.86 1008.44 1007.93 1005.30 1005.17 1004.88 1004.39 1003.96 1003.84 1003.38 1003.31 1003.32 1003.22 1003.39 1003.46 1003.77 1003.56 1003.54 1003.99 1004.25 1004.54 1004.63 1004.85 1005.27 1005.61 1005.37 1006.33 1007.40 1007.89 1008.13 1008.33 1008.56 1008.99 1009.16
1014.40 1013.73 1013.07 1012.46 1011.84 1011.28 1010.32 1009.20 1009.52 1009.20 1008.57 1007.96 1007.57 1006.85 1005.76 1005.35 1004.96 1004.20 1003.89 1003.53 1003.28 1003.24 1003.22 1003.58 1003.20 1002.81 1002.81 1003.26 1003.57 1003.77 1004.08 1004.20 1004.09 1004.48 1004.85 1004.65 1004.72 1005.35 1006.14 1007.19 1007.45 1007.59 1007.87 1007.99 1007.87
1014.05 1013.40 1012.72 1012.11 1011.49 1010.99 1010.80 1009.87 1010.07 1010.12 1008.77 1007.62 1007.15 1006.70 1005.95 1005.74 1004.96 1003.92 1003.79 1003.34 1003.19 1003.26 1003.71 1003.78 1003.04 1002.78 1003.28 1003.51 1003.53 1003.65 1003.71 1003.79 1003.91 1004.18 1004.58 1004.24 1004.05 1004.41 1005.31 1005.43 1006.06 1006.59 1006.87 1007.05 1007.15
1013.71 1013.05 1012.45 1011.83 1011.12 1010.59 1010.33 1010.00 1010.04 1009.83 1008.91 1007.20 1006.52 1006.02 1005.63 1005.48 1004.58 1003.77 1003.58 1003.34 1003.24 1003.49 1003.57 1003.15 1003.07 1003.21 1003.24 1003.44 1003.37 1003.32 1003.37 1003.48 1003.74 1004.13 1004.29 1004.01 1002.80 1003.48 1004.37 1005.00 1005.75 1005.93 1006.14 1006.35 1006.36
1013.39 1012.82 1012.30 1011.57 1011.19 1010.96 1010.17 1009.95 1009.91 1009.68 1008.28 1006.91 1006.17 1005.42 1005.46 1005.16 1004.44 1003.73 1003.54 1003.38 1003.64 1003.57 1003.93 1003.85 1003.71 1003.41 1003.22 1003.06 1003.20 1002.86 1003.23 1003.22 1003.41 1003.71 1003.63 1004.01 1002.74 1002.01 1003.15 1003.81 1004.38 1004.66 1005.04 1005.20 1005.56
1013.09 1012.57 1012.29 1012.02 1011.66 1010.64 1010.30 1010.00 1009.67 1009.27 1007.38 1006.20 1005.44 1005.16 1005.14 1004.97 1004.45 1003.81 1003.58 1003.25 1003.43 1003.98 1004.36 1004.04 1003.93 1003.63 1003.26 1002.98 1003.14 1002.91 1003.22 1003.31 1003.28 1003.39 1003.67 1003.53 1003.22 1001.34 1002.15 1002.02 1002.47 1003.05 1003.53 1003.95 1004.40
1012.74 1012.24 1012.01 1012.01 1011.68 1010.32 1010.00 1009.72 1009.33 1008.41 1007.10 1005.89 1005.35 1005.23 1004.87 1004.59 1004.09 1003.84 1003.60 1003.61 1003.93 1004.00 1004.19 1003.99 1004.04 1003.64 1003.11 1003.04 1003.03 1003.17 1003.36 1003.58 1003.69 1003.46 1002.96 1002.69 1002.47 1000.55 1000.62 1000.35 1000.92 1001.64 1002.39 1002.89 1003.38
1012.29 1011.71 1011.65 1011.29 1010.71 1010.25 1009.71 1009.05 1008.45 1007.73 1007.42 1006.56 1005.85 1005.51 1005.20 1004.67 1004.26 1004.04 1003.86 1003.90 1003.95 1004.23 1004.17 1004.07 1003.58 1003.34 1003.25 1003.09 1003.10 1003.11 1002.92 1002.82 1003.00 1002.90 1002.25 1002.74 1002.27 1000.33 999.39 999.49 1000.30 1000.70 1001.13 1001.75 1002.37
1011.95 1011.66 1011.48 1010.99 1010.64 1010.35 1009.19 1008.64 1008.07 1008.09 1007.38 1006.88 1006.25 1005.63 1005.31 1005.17 1004.96 1004.59 1004.50 1004.62 1004.87 1004.72 1004.57 1004.18 1003.52 1003.19 1002.85 1002.40 1002.27 1002.48 1002.58 1002.19 1001.86 1002.25 1002.10 1002.70 1001.36 999.88 999.26 999.38 999.88 1000.36 1000.75 1001.05 1001.73
1011.54 1011.33 1010.90 1010.60 1010.47 1010.15 1009.07 1008.43 1008.62 1008.25 1007.76 1007.08 1006.42 1005.85 1005.49 1005.31 1005.20 1005.12 1005.42 1005.61 1005.59 1005.34 1004.96 1004.56 1003.88 1003.22 1002.94 1002.54 1002.41 1002.72 1002.72 1002.68 1002.02 1003.01 1002.33 1001.38 1000.98 1000.00 998.96 998.70 999.10 999.62 1000.16 1000.71 1001.31
1011.40 1010.88 1010.66 1010.41 1010.37 1009.65 1008.98 1009.11 1009.06 1008.66 1008.01 1007.46 1006.75 1006.60 1006.19 1005.92 1005.60 1005.55 1005.81 1006.25 1005.94 1005.88 1005.71 1005.08 1004.31 1003.19 1002.61 1002.75 1002.85 1002.36 1002.46 1002.55 1002.38 1001.96 1001.51 1000.92 1000.48 999.24 998.65 998.40 998.72 999.31 999.69 1000.34 1001.10
1011.27 1010.66 1010.35 1010.22 1010.05 1009.28 1009.70 1009.90 1009.34 1008.60 1008.38 1007.77 1007.26 1006.98 1006.97 1006.81 1006.52 1006.40 1006.55 1006.54 1006.36 1006.01 1005.92 1005.43 1005.03 1003.60 1003.23 1002.48 1002.26 1002.60 1002.28 1002.55 1002.28 1001.95 1001.05 1000.44 999.36 998.81 998.30 998.25 998.42 998.76 999.58 1000.29 1000.97
1011.48 1010.79 1010.27 1009.77 1009.99 1011.06 1010.66 1010.51 1010.03 1008.86 1008.41 1008.04 1007.82 1007.50 1007.50 1007.55 1007.13 1007.05 1006.98 1006.81 1006.75 1006.52 1006.18 1006.10 1005.17 1003.83 1002.72 1002.69 1002.71 1002.07 1001.57 1001.64 1001.56 1001.71 1001.62 1000.65 999.06 998.31 998.42 998.45 998.80 998.80 999.53 999.96 1000.56
1012.36 1011.70 1010.58 1010.17 1010.87 1011.23 1011.06 1010.49 1010.11 1009.29 1008.89 1008.49 1008.37 1008.44 1008.25 1008.17 1008.11 1007.76 1007.52 1007.21 1007.19 1006.74 1006.56 1006.18 1005.53 1004.16 1002.69 1003.01 1002.93 1002.46 1002.15 1001.45 1001.50 1001.59 1000.67 999.95 998.69 998.42 998.78 998.96 999.25 999.18 999.88 1000.16 1000.74
1013.09 1012.61 1011.88 1011.84 1012.60 1012.06 1011.64 1011.02 1010.31 1009.79 1009.56 1009.29 1009.10 1008.92 1008.81 1008.76 1008.76 1008.33 1007.91 1007.50 1007.29 1007.08 1006.98 1006.63 1005.71 1004.74 1003.99 1003.71 1003.50 1002.89 1002.28 1002.15 1001.41 1000.59 1000.04 999.55 998.86 998.68 998.60 999.05 999.29 999.18 999.38 1000.00 1000.50
1014.38 1014.98 1015.07 1013.76 1013.31 1012.87 1012.47 1011.89 1011.05 1010.37 1010.13 1009.91 1009.62 1009.69 1009.62 1009.32 1009.10 1008.94 1008.57 1008.10 1007.46 1007.24 1006.95 1006.73 1005.64 1005.25 1004.48 1004.08 1003.75 1002.86 1002.26 1001.92 1001.58 1000.49 1000.20 999.11 999.18 998.82 999.35 999.60 999.53 999.59 999.24 999.61 1000.03
1015.94 1015.99 1015.75 1014.90 1014.31 1013.49 1013.15 1012.55 1011.95 1011.47 1011.05 1010.43 1010.38 1010.37 1010.21 1009.98 1009.87 1009.66 1009.39 1008.88 1007.89 1007.19 1006.99 1006.99 1006.09 1005.65 1004.41 1003.88 1003.48 1002.46 1002.00 1001.68 1001.48 1001.17 1000.68 1000.30 1000.02 1000.09 1000.22 1000.04 999.92 999.75 999.35 999.07 999.39
1017.40 1017.16 1016.30 1015.60 1014.58 1014.00 1013.58 1013.23 1012.70 1012.46 1011.61 1011.23 1011.28 1011.12 1010.63 1010.41 1010.45 1009.97 1009.64 1009.09 1008.35 1007.96 1007.49 1007.34 1006.58 1005.75 1004.40 1003.87 1002.92 1001.96 1001.94 1001.78 1001.34 1001.39 1000.88 1000.51 1000.34 1000.58 1000.04 999.99 999.94 999.73 999.63 999.16 999.11
Wind_Speed
18 18 18 18 18 19 18 19 19 20 20 19 19 19 17 17 14 2 4 2 9 20 17 12 5 6 7 2 4 2 1 2 4 5 4 8 6 4 4 13 5 4 6 15 21
19 19 19 19 19 18 19 18 19 19 20 19 19 19 18 16 3 4 2 11 25 20 12 11 6 9 3 1 3 3 1 2 5 7 8 8 8 8 7 9 4 8 12 20 20
18 18 19 19 19 19 19 19 19 19 20 20 18 19 18 13 3 1 7 12 23 17 6 4 8 4 2 2 3 2 3 3 3 5 15 11 6 4 10 9 8 15 22 23 19
18 18 19 19 20 20 20 19 19 20 20 20 18 19 19 3 4 2 9 10 15 6 6 7 7 2 1 3 3 2 6 3 5 7 10 11 8 4 3 2 4 17 25 23 22
19 19 19 19 20 21 20 20 20 19 19 19 17 16 5 3 4 2 6 9 11 3 5 4 3 1 1 1 5 4 4 6 9 7 8 9 6 5 1 4 12 19 21 21 19
19 19 19 19 19 20 21 20 20 20 18 17 15 13 2 4 3 4 8 6 4 5 3 5 2 2 2 3 4 5 10 11 8 9 8 6 4 3 4 11 16 20 20 18 18
20 20 20 20 20 20 21 21 22 20 18 14 9 3 1 10 3 1 3 4 4 5 3 1 2 2 2 5 4 4 9 8 3 5 4 7 4 7 14 14 16 17 15 15 16
21 21 21 21 22 22 21 22 22 19 12 5 4 2 7 2 2 9 2 4 7 6 4 2 2 4 2 5 4 3 1 1 5 4 8 2 5 6 15 16 17 17 14 14 16
20 21 22 22 22 22 22 23 17 6 3 6 2 1 7 5 2 3 4 4 4 3 3 1 1 4 3 6 4 1 3 3 2 8 6 8 6 5 14 13 15 16 15 14 13
21 21 22 23 22 21 24 17 2 2 2 3 2 4 1 3 5 6 3 4 3 4 2 1 4 4 3 5 3 4 3 2 6 5 11 10 17 4 15 14 15 15 15 15 16
22 23 22 22 22 20 12 1 2 2 1 3 1 5 3 10 4 3 1 5 4 3 6 2 6 9 12 7 4 3 2 5 8 5 8 15 14 9 18 16 16 16 16 17 18
23 22 22 22 21 19 3 5 4 3 6 2 7 8 7 2 5 3 1 5 4 6 4 5 12 10 6 7 5 4 2 3 6 1 8 5 14 9 18 22 21 18 18 18 18
23 21 21 21 22 4 3 7 4 5 2 5 3 4 3 7 5 4 4 3 3 7 11 10 4 5 8 7 7 5 5 3 5 1 6 8 9 5 9 16 18 19 17 17 18
22 21 20 23 3 2 2 2 6 5 2 6 1 0 2 2 3 3 2 1 2 7 8 4 2 4 6 7 8 14 10 6 4 4 5 2 8 10 6 12 19 21 22 21 19
22 20 16 8 3 1 4 8 3 4 3 11 2 2 1 3 5 3 1 2 5 5 4 4 4 6 7 8 8 4 5 5 4 3 4 5 5 9 1 7 18 22 24 23 21
22 19 10 3 2 4 9 6 3 3 5 5 3 6 1 2 2 2 1 4 3 5 2 1 1 2 2 2 9 5 4 3 2 2 7 2 7 11 4 8 2 8 21 24 23
21 15 4 0 3 8 7 1 1 5 2 8 4 5 2 5 5 5 3 3 4 3 2 2 6 3 4 5 3 4 7 7 7 7 8 2 6 10 15 13 10 10 9 20 23
20 0 3 3 5 7 2 1 6 1 3 2 3 3 5 7 8 8 4 3 4 2 3 4 6 8 8 15 10 11 13 9 14 10 9 4 7 6 12 13 7 6 8 12 18
10 1 0 5 2 2 1 5 2 1 3 7 3 5 7 5 3 3 9 6 3 1 5 5 5 3 6 3 8 7 8 4 6 1 4 3 5 12 13 16 7 7 7 9 14
1 1 4 5 3 1 3 3 1 3 4 2 4 3 5 8 3 2 5 4 7 2 5 1 6 6 2 5 3 5 8 6 2 7 10 5 4 6 5 9 5 5 9 10 13
1 2 4 5 3 4 4 3 4 3 3 1 3 3 3 4 3 3 4 2 6 7 1 2 3 2 3 8 12 6 5 2 2 3 7 9 5 9 11 11 10 6 8 10 13
2 2 6 5 4 2 2 5 5 5 5 1 1 4 4 6 3 3 3 3 7 4 5 2 2 5 6 1 5 8 14 13 9 10 3 5 8 7 11 10 8 10 4 10 12
3 2 2 4 3 3 3 3 2 7 8 6 5 5 3 3 1 2 4 4 4 5 6 1 2 5 4 5 3 3 3 9 6 3 10 11 7 4 2 6 8 12 3 7 11
1 1 3 5 2 2 3 3 3 5 3 3 4 2 2 3 3 1 3 4 12 4 4 3 3 3 3 6 6 8 7 7 15 10 14 12 13 11 7 7 8 11 7 8 13
5 3 2 3 3 3 1 2 3 4 3 7 2 7 2 2 3 2 3 8 8 1 3 4 7 4 8 10 5 7 11 8 15 13 11 11 12 7 4 12 10 10 10 8 14
3 2 1 2 2 2 1 1 2 4 3 2 3 8 3 3 2 4 4 4 6 3 6 1 5 3 8 5 8 11 6 8 12 13 10 11 13 3 14 10 9 10 10 12 13
2 1 2 2 1 1 1 1 1 4 3 2 5 7 8 4 7 12 13 14 14 8 7 5 5 4 8 4 11 10 3 6 4 3 3 6 5 13 15 13 11 10 11 12 13
Wind_Direction
350 347 347 343 341 338 337 334 332 331 329 328 328 326 328 332 313 204 249 156 174 161 146 144 166 165 177 241 234 219 127 109 158 178 134 146 135 116 119 144 160 137 145 137 150
347 344 343 340 338 336 333 331 328 328 327 326 327 325 328 335 289 230 2 135 142 148 145 164 170 159 183 249 205 233 38 97 169 159 158 162 155 137 146 159 127 108 118 136 154
344 342 340 337 335 332 330 327 325 325 325 324 326 324 323 323 285 43 3 156 160 174 152 168 141 176 159 200 204 153 25 136 99 152 149 158 156 151 155 192 191 163 148 152 164
343 340 337 334 331 328 326 323 322 322 322 321 325 322 319 282 180 340 5 152 168 185 150 160 157 208 261 155 190 172 49 70 121 136 147 161 148 156 180 342 187 167 156 158 171
341 338 335 332 328 325 323 319 317 317 317 317 322 324 328 322 252 6 75 119 167 225 215 192 200 202 148 180 131 82 72 66 117 145 149 149 179 161 150 69 127 149 160 170 176
338 335 332 330 326 323 320 316 313 312 310 309 311 318 315 282 104 131 109 130 185 240 232 194 205 235 66 50 45 96 100 120 115 139 151 183 164 188 121 129 136 156 172 177 186
336 333 331 328 324 320 317 313 311 309 303 296 291 284 143 253 167 260 270 196 209 223 288 187 243 231 133 114 122 118 100 110 132 143 153 147 183 229 146 151 151 169 179 187 194
334 332 330 326 322 320 315 311 307 304 302 280 216 214 255 250 230 294 233 230 220 235 249 277 230 101 41 121 66 77 62 157 176 162 158 17 282 154 164 161 163 176 187 200 206
332 331 328 325 322 318 316 312 305 294 14 126 165 270 263 138 235 310 239 248 168 197 262 125 86 71 134 140 126 47 295 239 263 210 165 206 298 140 175 185 173 181 192 202 212
331 331 329 325 322 321 319 307 245 266 194 216 235 273 273 10 298 308 250 253 199 149 164 8 82 143 138 191 180 213 302 264 278 213 217 203 247 166 184 196 196 193 196 201 208
334 331 328 325 323 324 335 187 315 174 46 254 68 287 296 326 238 227 302 164 141 119 196 54 218 213 218 200 156 188 197 301 297 207 226 238 256 209 185 201 209 204 207 208 216
334 331 328 325 322 318 272 75 92 355 310 259 258 268 263 266 292 265 233 178 170 176 149 163 222 219 121 169 199 205 235 295 292 251 222 286 264 234 194 203 206 208 210 213 222
334 332 330 326 318 303 6 118 13 176 270 302 258 262 294 193 223 261 193 153 142 155 192 202 194 168 182 165 200 220 246 235 290 170 254 297 278 195 204 215 212 222 222 222 221
334 332 331 325 290 338 118 33 327 198 2 15 29 115 162 213 236 242 237 171 97 197 164 228 345 186 196 213 206 264 210 246 258 252 316 309 302 298 180 204 212 215 218 221 220
332 329 330 345 315 209 38 332 131 215 92 336 50 358 65 260 320 66 333 174 150 126 201 132 169 184 215 231 187 270 169 249 258 241 248 190 252 277 242 254 224 216 215 219 215
332 327 320 154 212 297 324 310 204 257 57 2 3 357 300 353 338 357 112 57 76 109 122 207 314 250 174 292 213 126 173 84 78 201 256 41 237 282 280 244 345 210 218 217 215
333 330 180 232 19 329 313 182 237 47 307 0 342 358 349 8 35 20 81 116 200 198 242 297 231 202 177 233 253 199 215 238 227 220 259 70 206 255 287 271 278 281 221 213 212
332 258 224 253 305 318 305 177 68 317 329 357 341 321 53 355 52 30 73 54 58 20 162 266 252 204 175 215 219 215 230 231 244 234 244 141 215 245 266 286 271 255 250 218 209
323 145 19 1 352 246 42 58 78 294 330 330 303 51 34 30 53 72 57 39 339 263 260 196 251 282 227 222 209 157 210 296 232 60 259 223 244 276 267 273 261 246 220 198 199
38 49 24 329 316 301 68 90 334 262 314 310 48 24 41 6 52 55 33 18 353 353 251 112 272 245 215 184 68 255 137 190 221 234 245 218 247 248 252 267 286 264 215 194 192
12 66 9 336 274 44 58 20 306 290 262 331 41 56 53 10 13 56 26 99 8 356 312 198 235 186 225 204 217 199 208 89 236 250 259 259 241 224 241 254 276 271 241 201 188
35 64 359 317 48 37 28 335 332 328 22 16 351 32 37 29 35 90 49 341 358 339 349 15 252 265 262 45 317 283 240 232 237 218 251 282 247 286 249 280 280 279 251 211 197
54 347 16 306 64 37 331 351 311 353 17 19 43 25 26 41 55 48 353 337 348 334 351 142 249 281 262 140 136 254 229 236 228 250 224 245 245 248 296 299 288 282 315 218 200
45 56 23 54 23 47 1 14 354 360 64 12 33 63 27 27 21 359 331 330 331 327 39 225 210 269 298 301 305 281 263 241 244 233 240 239 256 267 244 309 323 303 271 208 189
13 68 30 30 66 42 323 332 341 6 22 15 89 39 351 314 339 360 316 318 304 51 4 321 267 206 272 276 227 261 266 258 228 246 231 265 209 260 328 324 320 302 281 216 193
44 357 96 90 291 250 12 72 342 335 304 15 36 343 332 255 203 280 308 277 276 289 314 2 280 231 283 215 267 291 273 244 237 243 253 264 274 343 316 310 309 305 276 240 210
49 116 286 39 34 246 108 354 303 343 227 269 24 318 289 278 304 281 269 263 259 275 277 277 271 249 266 314 306 263 344 273 237 228 235 248 309 322 314 311 318 311 295 264 233